CON21V SOCA-SVMI

Flight info

Callsign CON21V
Flight time 2h 31m
Altitude 38000
Route GEDAX UG443 BNA UW14 USOTI UW27 TUY
Aircraft A346/H-SDE2E3FGHIJ3J4J5M1RWXY/LB1D1

Departure

Time 2026-05-07 16:51
Airport Cayenne – Félix Eboué Airport (SOCA)

Arrival

Time 2026-05-07 19:23
Airport Maiquetía Simón Bolívar International Airport (SVMI)
Time Latitude Longitude Altitude Speed Heading
2026-05-07 16:38 4.82162 -52.36299 64 ft 0 kts 335°
2026-05-07 16:44 4.82149 -52.36292 36 ft 4 kts 328°
2026-05-07 16:45 4.82131 -52.36276 33 ft 4 kts 306°
2026-05-07 16:45 4.82121 -52.36256 37 ft 4 kts 278°
2026-05-07 16:45 4.82123 -52.36235 36 ft 4 kts 248°
2026-05-07 16:45 4.82125 -52.36229 35 ft 0 kts 243°
2026-05-07 16:47 4.82122 -52.36234 35 ft 5 kts 240°
2026-05-07 16:47 4.82082 -52.36259 37 ft 6 kts 185°
2026-05-07 16:48 4.82016 -52.36234 37 ft 18 kts 155°
2026-05-07 16:48 4.81930 -52.36286 37 ft 22 kts 255°
2026-05-07 16:48 4.81843 -52.36469 37 ft 32 kts 243°
2026-05-07 16:48 4.81745 -52.36673 37 ft 33 kts 245°
2026-05-07 16:49 4.81650 -52.36884 36 ft 34 kts 245°
2026-05-07 16:49 4.81550 -52.37099 36 ft 34 kts 245°
2026-05-07 16:49 4.81463 -52.37289 36 ft 23 kts 245°
2026-05-07 16:49 4.81422 -52.37365 35 ft 11 kts 235°
2026-05-07 16:50 4.81425 -52.37406 35 ft 4 kts 10°
2026-05-07 16:50 4.81430 -52.37397 35 ft 0 kts 84°
2026-05-07 16:50 4.81430 -52.37396 35 ft 0 kts 84°
2026-05-07 16:50 4.81499 -52.37218 36 ft 61 kts 65°
2026-05-07 16:51 4.81764 -52.36635 37 ft 123 kts 65°
2026-05-07 16:51 4.82201 -52.35689 40 ft 173 kts 64°
2026-05-07 16:51 4.82715 -52.34529 498 ft 184 kts 62°
2026-05-07 16:51 4.83257 -52.33368 1242 ft 183 kts 65°
2026-05-07 16:52 4.83930 -52.32276 1963 ft 185 kts 39°
2026-05-07 16:52 4.85126 -52.31752 2378 ft 197 kts
2026-05-07 16:52 4.86513 -52.31988 2669 ft 214 kts 338°
2026-05-07 16:52 4.87662 -52.33042 2940 ft 240 kts 300°
2026-05-07 16:53 4.87990 -52.34750 3270 ft 266 kts 262°
2026-05-07 16:53 4.87198 -52.36466 3760 ft 281 kts 226°
2026-05-07 16:53 4.85585 -52.37564 4520 ft 282 kts 206°
2026-05-07 16:53 4.83973 -52.38639 5290 ft 285 kts 229°
2026-05-07 16:54 4.83104 -52.40403 6068 ft 285 kts 263°
2026-05-07 16:54 4.83316 -52.42354 6760 ft 284 kts 295°
2026-05-07 16:54 4.84193 -52.44146 7487 ft 288 kts 298°
2026-05-07 16:54 4.85027 -52.45997 8207 ft 294 kts 293°
2026-05-07 16:55 4.85717 -52.47942 8974 ft 298 kts 289°
2026-05-07 16:55 4.86293 -52.49958 9756 ft 302 kts 286°
2026-05-07 16:55 4.86796 -52.52025 10421 ft 309 kts 284°
2026-05-07 16:55 4.87269 -52.54188 10809 ft 325 kts 283°
2026-05-07 16:56 4.87732 -52.56446 11149 ft 343 kts 282°
2026-05-07 16:56 4.88208 -52.58856 11461 ft 361 kts 282°
2026-05-07 16:56 4.89207 -52.64053 12084 ft 395 kts 281°
2026-05-07 16:57 4.89729 -52.66799 12595 ft 404 kts 281°
2026-05-07 16:57 4.90260 -52.69585 13310 ft 407 kts 281°
2026-05-07 16:57 4.90792 -52.72376 14073 ft 407 kts 281°
2026-05-07 16:57 4.91326 -52.75183 14714 ft 410 kts 281°
2026-05-07 16:58 4.91862 -52.78005 15344 ft 413 kts 280°
2026-05-07 16:58 4.92404 -52.80852 15938 ft 417 kts 280°
2026-05-07 16:58 4.92761 -52.82751 16311 ft 419 kts 280°
2026-05-07 16:58 4.93306 -52.85639 16920 ft 422 kts 279°
2026-05-07 16:59 4.94036 -52.89504 17673 ft 427 kts 279°
2026-05-07 16:59 4.94410 -52.91487 18064 ft 429 kts 279°
2026-05-07 16:59 4.94971 -52.94445 18574 ft 432 kts 280°
2026-05-07 16:59 4.95524 -52.97375 19042 ft 435 kts 279°
2026-05-07 17:00 4.96095 -53.00372 19499 ft 438 kts 279°
2026-05-07 17:00 4.96719 -53.03391 19948 ft 442 kts 281°
2026-05-07 17:00 4.97401 -53.06415 20392 ft 445 kts 282°
2026-05-07 17:00 4.98093 -53.09465 20827 ft 449 kts 282°
2026-05-07 17:01 4.98792 -53.12534 21265 ft 453 kts 282°
2026-05-07 17:01 4.99498 -53.15636 21691 ft 456 kts 282°
2026-05-07 17:01 5.00206 -53.18746 22141 ft 459 kts 282°
2026-05-07 17:01 5.00925 -53.21887 22536 ft 463 kts 282°
2026-05-07 17:02 5.01647 -53.25051 22930 ft 467 kts 281°
2026-05-07 17:02 5.02364 -53.28202 23278 ft 471 kts 282°
2026-05-07 17:02 5.03094 -53.31423 23658 ft 474 kts 282°
2026-05-07 17:02 5.03833 -53.34670 24009 ft 476 kts 282°
2026-05-07 17:03 5.04573 -53.37918 24390 ft 478 kts 282°
2026-05-07 17:03 5.05317 -53.41178 24759 ft 480 kts 282°
2026-05-07 17:03 5.06063 -53.44453 25118 ft 482 kts 282°
2026-05-07 17:03 5.06814 -53.47750 25457 ft 484 kts 281°
2026-05-07 17:04 5.07556 -53.51025 25815 ft 486 kts 281°
2026-05-07 17:04 5.08310 -53.54347 26174 ft 488 kts 281°
2026-05-07 17:04 5.09065 -53.57676 26536 ft 490 kts 281°
2026-05-07 17:04 5.09827 -53.61023 26883 ft 492 kts 281°
2026-05-07 17:05 5.10590 -53.64382 27207 ft 495 kts 281°
2026-05-07 17:05 5.11357 -53.67762 27550 ft 497 kts 281°
2026-05-07 17:05 5.12128 -53.71162 27877 ft 499 kts 281°
2026-05-07 17:05 5.12900 -53.74568 28308 ft 499 kts 281°
2026-05-07 17:06 5.13672 -53.77966 28816 ft 497 kts 281°
2026-05-07 17:06 5.14439 -53.81342 29313 ft 495 kts 281°
2026-05-07 17:06 5.15194 -53.84670 29811 ft 494 kts 281°
2026-05-07 17:06 5.15957 -53.88035 30225 ft 493 kts 281°
2026-05-07 17:07 5.16717 -53.91390 30639 ft 491 kts 281°
2026-05-07 17:07 5.17474 -53.94737 31085 ft 489 kts 281°
2026-05-07 17:07 5.18227 -53.98063 31551 ft 487 kts 281°
2026-05-07 17:07 5.18977 -54.01375 32025 ft 484 kts 281°
2026-05-07 17:08 5.19723 -54.04669 32490 ft 482 kts 281°
2026-05-07 17:08 5.20465 -54.07947 32956 ft 480 kts 281°
2026-05-07 17:08 5.21202 -54.11209 33428 ft 478 kts 281°
2026-05-07 17:08 5.21927 -54.14418 33899 ft 475 kts 281°
2026-05-07 17:09 5.22659 -54.17650 34304 ft 473 kts 281°
2026-05-07 17:09 5.23389 -54.20873 34738 ft 470 kts 281°
2026-05-07 17:09 5.24112 -54.24067 35184 ft 467 kts 281°
2026-05-07 17:09 5.24830 -54.27246 35623 ft 464 kts 282°
2026-05-07 17:10 5.25542 -54.30403 36057 ft 461 kts 282°
2026-05-07 17:10 5.26241 -54.33540 36442 ft 460 kts 282°
2026-05-07 17:10 5.26937 -54.36681 36757 ft 460 kts 282°
2026-05-07 17:10 5.27624 -54.39781 37050 ft 460 kts 282°
2026-05-07 17:11 5.28322 -54.42927 37353 ft 460 kts 282°
2026-05-07 17:11 5.29019 -54.46071 37642 ft 461 kts 282°
2026-05-07 17:11 5.29719 -54.49221 37895 ft 461 kts 282°
2026-05-07 17:11 5.30418 -54.52372 37920 ft 462 kts 282°
2026-05-07 17:12 5.31817 -54.58670 37927 ft 462 kts 282°
2026-05-07 17:12 5.33217 -54.64978 37930 ft 462 kts 282°
2026-05-07 17:13 5.34607 -54.71245 37935 ft 462 kts 282°
2026-05-07 17:13 5.36006 -54.77563 37937 ft 462 kts 282°
2026-05-07 17:14 5.37403 -54.83867 37937 ft 462 kts 282°
2026-05-07 17:14 5.38791 -54.90136 37944 ft 462 kts 282°
2026-05-07 17:15 5.40187 -54.96440 37946 ft 462 kts 282°
2026-05-07 17:15 5.41583 -55.02746 37952 ft 462 kts 282°
2026-05-07 17:16 5.42977 -55.09048 37948 ft 462 kts 282°
2026-05-07 17:16 5.44371 -55.15349 37947 ft 462 kts 283°
2026-05-07 17:17 5.46124 -55.21564 37949 ft 462 kts 288°
2026-05-07 17:17 5.48188 -55.27632 37945 ft 462 kts 288°
2026-05-07 17:18 5.50286 -55.33760 37942 ft 462 kts 288°
2026-05-07 17:18 5.52376 -55.39870 37939 ft 462 kts 288°
2026-05-07 17:19 5.54457 -55.45956 37945 ft 462 kts 288°
2026-05-07 17:19 5.56545 -55.52067 37945 ft 462 kts 288°
2026-05-07 17:20 5.58633 -55.58181 37944 ft 462 kts 288°
2026-05-07 17:20 5.60718 -55.64291 37941 ft 462 kts 288°
2026-05-07 17:21 5.62802 -55.70398 37940 ft 462 kts 288°
2026-05-07 17:21 5.64885 -55.76504 37939 ft 462 kts 288°
2026-05-07 17:22 5.66971 -55.82619 37943 ft 462 kts 288°
2026-05-07 17:22 5.69057 -55.88742 37949 ft 462 kts 288°
2026-05-07 17:23 5.71143 -55.94865 37948 ft 462 kts 288°
2026-05-07 17:23 5.73226 -56.00980 37941 ft 462 kts 288°
2026-05-07 17:24 5.75313 -56.07111 37940 ft 462 kts 288°
2026-05-07 17:24 5.77382 -56.13191 37942 ft 463 kts 288°
2026-05-07 17:25 5.79465 -56.19314 37947 ft 462 kts 288°
2026-05-07 17:25 5.81547 -56.25439 37938 ft 462 kts 288°
2026-05-07 17:26 5.83630 -56.31564 37950 ft 462 kts 288°
2026-05-07 17:26 5.85713 -56.37694 37945 ft 463 kts 288°
2026-05-07 17:27 5.87782 -56.43786 37945 ft 463 kts 288°
2026-05-07 17:27 5.89861 -56.49911 37942 ft 463 kts 288°
2026-05-07 17:28 5.91944 -56.56046 37943 ft 463 kts 288°
2026-05-07 17:28 5.94023 -56.62171 37947 ft 463 kts 288°
2026-05-07 17:29 5.96104 -56.68308 37948 ft 463 kts 288°
2026-05-07 17:29 5.98184 -56.74445 37950 ft 463 kts 288°
2026-05-07 17:30 6.00247 -56.80531 37953 ft 463 kts 288°
2026-05-07 17:30 6.02325 -56.86660 37944 ft 463 kts 288°
2026-05-07 17:31 6.04404 -56.92797 37944 ft 463 kts 288°
2026-05-07 17:31 6.06480 -56.98932 37951 ft 463 kts 288°
2026-05-07 17:32 6.08562 -57.05063 37952 ft 463 kts 288°
2026-05-07 17:32 6.10298 -57.10155 37949 ft 463 kts 288°
2026-05-07 17:33 6.12727 -57.17283 37954 ft 463 kts 288°
2026-05-07 17:33 6.14815 -57.23411 37959 ft 463 kts 288°
2026-05-07 17:34 6.16902 -57.29544 37959 ft 463 kts 288°
2026-05-07 17:34 6.18993 -57.35686 37950 ft 463 kts 288°
2026-05-07 17:35 6.21067 -57.41782 37956 ft 463 kts 288°
2026-05-07 17:35 6.23155 -57.47920 37957 ft 463 kts 288°
2026-05-07 17:36 6.25240 -57.54058 37955 ft 463 kts 288°
2026-05-07 17:36 6.27327 -57.60199 37964 ft 463 kts 288°
2026-05-07 17:37 6.29411 -57.66334 37959 ft 463 kts 287°
2026-05-07 17:37 6.31481 -57.72429 37954 ft 463 kts 287°
2026-05-07 17:38 6.33562 -57.78564 37956 ft 463 kts 287°
2026-05-07 17:38 6.35640 -57.84691 37954 ft 462 kts 287°
2026-05-07 17:39 6.37722 -57.90831 37952 ft 463 kts 287°
2026-05-07 17:39 6.39789 -57.96927 37959 ft 462 kts 287°
2026-05-07 17:40 6.41869 -58.03067 37952 ft 462 kts 287°
2026-05-07 17:40 6.43947 -58.09201 37955 ft 462 kts 287°
2026-05-07 17:41 6.46011 -58.15297 37956 ft 463 kts 287°
2026-05-07 17:41 6.48178 -58.21416 37946 ft 464 kts 290°
2026-05-07 17:42 6.50898 -58.27326 37953 ft 465 kts 296°
2026-05-07 17:42 6.54221 -58.32928 37946 ft 466 kts 301°
2026-05-07 17:43 6.57819 -58.38361 37949 ft 466 kts 302°
2026-05-07 17:43 6.61407 -58.43759 37954 ft 466 kts 302°
2026-05-07 17:44 6.65019 -58.49200 37950 ft 466 kts 302°
2026-05-07 17:44 6.68624 -58.54634 37955 ft 466 kts 302°
2026-05-07 17:45 6.72229 -58.60070 37955 ft 466 kts 302°
2026-05-07 17:45 6.75804 -58.65465 37951 ft 466 kts 302°
2026-05-07 17:46 6.79405 -58.70900 37957 ft 466 kts 302°
2026-05-07 17:46 6.82398 -58.75419 37954 ft 466 kts 302°
2026-05-07 17:47 6.85998 -58.80855 37956 ft 465 kts 302°
2026-05-07 17:47 6.89590 -58.86281 37955 ft 465 kts 302°
2026-05-07 17:48 6.93188 -58.91718 37960 ft 465 kts 302°
2026-05-07 17:48 6.96760 -58.97116 37952 ft 465 kts 302°
2026-05-07 17:49 7.00353 -59.02549 37959 ft 465 kts 302°
2026-05-07 17:49 7.03945 -59.07981 37956 ft 464 kts 302°
2026-05-07 17:50 7.07531 -59.13404 37953 ft 464 kts 302°
2026-05-07 17:50 7.11091 -59.18793 37954 ft 464 kts 302°
2026-05-07 17:51 7.14860 -59.24119 37953 ft 466 kts 306°
2026-05-07 17:51 7.18848 -59.29276 37947 ft 465 kts 305°
2026-05-07 17:52 7.22548 -59.34635 37947 ft 465 kts 302°
2026-05-07 17:52 7.26150 -59.40006 37944 ft 464 kts 302°
2026-05-07 17:53 7.29773 -59.45410 37948 ft 464 kts 302°
2026-05-07 17:53 7.33401 -59.50820 37942 ft 464 kts 302°
2026-05-07 17:54 7.37001 -59.56190 37943 ft 465 kts 302°
2026-05-07 17:54 7.40632 -59.61609 37945 ft 465 kts 302°
2026-05-07 17:55 7.44257 -59.67019 37943 ft 465 kts 302°
2026-05-07 17:55 7.47856 -59.72391 37943 ft 465 kts 302°
2026-05-07 17:56 7.51483 -59.77807 37930 ft 465 kts 302°
2026-05-07 17:56 7.55110 -59.83224 37941 ft 465 kts 302°
2026-05-07 17:57 7.58122 -59.87725 37937 ft 465 kts 302°
2026-05-07 17:57 7.62328 -59.94013 37942 ft 464 kts 302°
2026-05-07 17:58 7.65949 -59.99428 37934 ft 464 kts 302°
2026-05-07 17:58 7.69567 -60.04839 37947 ft 464 kts 302°
2026-05-07 17:59 7.73185 -60.10254 37948 ft 464 kts 302°
2026-05-07 17:59 7.76778 -60.15632 37944 ft 464 kts 302°
2026-05-07 18:00 7.80392 -60.21040 37948 ft 463 kts 302°
2026-05-07 18:00 7.83998 -60.26441 37951 ft 463 kts 302°
2026-05-07 18:01 7.87602 -60.31844 37942 ft 463 kts 302°
2026-05-07 18:01 7.91192 -60.37256 37945 ft 463 kts 302°
2026-05-07 18:02 7.96538 -60.45323 37941 ft 461 kts 302°
2026-05-07 18:03 8.00113 -60.50719 37944 ft 461 kts 302°
2026-05-07 18:03 8.03657 -60.56069 37945 ft 461 kts 302°
2026-05-07 18:04 8.07227 -60.61460 37944 ft 461 kts 302°
2026-05-07 18:04 8.10792 -60.66845 37939 ft 461 kts 302°
2026-05-07 18:05 8.14358 -60.72235 37950 ft 461 kts 302°
2026-05-07 18:05 8.17921 -60.77619 37936 ft 461 kts 302°
2026-05-07 18:06 8.21481 -60.83002 37949 ft 460 kts 302°
2026-05-07 18:06 8.25042 -60.88389 37940 ft 460 kts 302°
2026-05-07 18:07 8.28602 -60.93777 37955 ft 460 kts 302°
2026-05-07 18:07 8.32136 -60.99122 37949 ft 459 kts 302°
2026-05-07 18:08 8.35707 -61.04533 37941 ft 459 kts 302°
2026-05-07 18:08 8.39253 -61.09904 37944 ft 458 kts 301°
2026-05-07 18:09 8.42792 -61.15267 37954 ft 458 kts 301°
2026-05-07 18:09 8.46314 -61.20607 37939 ft 459 kts 301°
2026-05-07 18:10 8.49862 -61.25974 37940 ft 459 kts 302°
2026-05-07 18:10 8.53415 -61.31342 37944 ft 458 kts 301°
2026-05-07 18:11 8.56967 -61.36708 37957 ft 458 kts 301°
2026-05-07 18:11 8.60488 -61.42033 37952 ft 457 kts 301°
2026-05-07 18:12 8.64031 -61.47391 37950 ft 457 kts 301°
2026-05-07 18:12 8.67566 -61.52739 37942 ft 456 kts 301°
2026-05-07 18:13 8.71072 -61.58045 37946 ft 455 kts 301°
2026-05-07 18:13 8.74597 -61.63383 37942 ft 455 kts 301°
2026-05-07 18:14 8.78117 -61.68717 37943 ft 455 kts 301°
2026-05-07 18:14 8.81639 -61.74054 37944 ft 455 kts 301°
2026-05-07 18:15 8.85158 -61.79390 37941 ft 455 kts 301°
2026-05-07 18:15 8.88656 -61.84694 37943 ft 455 kts 301°
2026-05-07 18:16 8.92178 -61.90039 37939 ft 455 kts 301°
2026-05-07 18:16 8.95696 -61.95379 37933 ft 454 kts 301°
2026-05-07 18:17 8.99186 -62.00679 37940 ft 454 kts 301°
2026-05-07 18:17 9.02688 -62.05999 37934 ft 454 kts 301°
2026-05-07 18:18 9.06194 -62.11321 37938 ft 452 kts 301°
2026-05-07 18:18 9.09683 -62.16629 37935 ft 452 kts 301°
2026-05-07 18:19 9.13166 -62.21928 37937 ft 452 kts 301°
2026-05-07 18:19 9.16627 -62.27196 37938 ft 451 kts 301°
2026-05-07 18:20 9.20100 -62.32482 37934 ft 450 kts 301°
2026-05-07 18:20 9.23572 -62.37769 37935 ft 450 kts 301°
2026-05-07 18:21 9.27043 -62.43057 37936 ft 450 kts 301°
2026-05-07 18:21 9.30513 -62.48345 37932 ft 450 kts 301°
2026-05-07 18:22 9.33982 -62.53635 37934 ft 450 kts 301°
2026-05-07 18:22 9.37450 -62.58925 37935 ft 450 kts 301°
2026-05-07 18:23 9.40895 -62.64181 37934 ft 450 kts 301°
2026-05-07 18:23 9.44371 -62.69481 37935 ft 451 kts 300°
2026-05-07 18:24 9.47844 -62.74789 37934 ft 451 kts 300°
2026-05-07 18:24 9.51294 -62.80063 37933 ft 451 kts 300°
2026-05-07 18:25 9.54765 -62.85366 37935 ft 450 kts 300°
2026-05-07 18:25 9.58224 -62.90656 37934 ft 449 kts 300°
2026-05-07 18:26 9.61683 -62.95949 37931 ft 449 kts 300°
2026-05-07 18:26 9.65143 -63.01245 37933 ft 449 kts 300°
2026-05-07 18:27 9.68579 -63.06508 37932 ft 449 kts 299°
2026-05-07 18:27 9.71717 -63.11965 37931 ft 446 kts 294°
2026-05-07 18:28 9.74287 -63.17685 37938 ft 444 kts 288°
2026-05-07 18:28 9.76275 -63.23618 37939 ft 442 kts 283°
2026-05-07 18:29 9.77798 -63.29667 37939 ft 442 kts 281°
2026-05-07 18:29 9.79265 -63.35688 37939 ft 442 kts 281°
2026-05-07 18:30 9.80736 -63.41756 37942 ft 442 kts 281°
2026-05-07 18:30 9.82203 -63.47824 37939 ft 442 kts 281°
2026-05-07 18:31 9.83666 -63.53890 37946 ft 442 kts 281°
2026-05-07 18:31 9.85133 -63.59972 37944 ft 442 kts 281°
2026-05-07 18:32 9.86597 -63.66042 37947 ft 442 kts 281°
2026-05-07 18:32 9.88063 -63.72125 37947 ft 442 kts 281°
2026-05-07 18:33 9.89514 -63.78159 37953 ft 442 kts 282°
2026-05-07 18:33 9.90975 -63.84227 37953 ft 442 kts 282°
2026-05-07 18:34 9.92189 -63.89275 37963 ft 442 kts 282°
2026-05-07 18:34 9.93649 -63.95343 37962 ft 441 kts 282°
2026-05-07 18:35 9.95339 -64.02386 37965 ft 442 kts 281°
2026-05-07 18:35 9.96788 -64.08453 37966 ft 442 kts 282°
2026-05-07 18:36 9.97997 -64.13514 37955 ft 443 kts 282°
2026-05-07 18:36 9.99450 -64.19590 37957 ft 442 kts 282°
2026-05-07 18:37 10.00902 -64.25661 37949 ft 442 kts 282°
2026-05-07 18:37 10.02354 -64.31742 37945 ft 442 kts 282°
2026-05-07 18:38 10.03803 -64.37820 37936 ft 443 kts 282°
2026-05-07 18:38 10.05254 -64.43911 37938 ft 444 kts 282°
2026-05-07 18:39 10.06345 -64.48481 37930 ft 444 kts 282°
2026-05-07 18:39 10.07797 -64.54574 37929 ft 443 kts 282°
2026-05-07 18:40 10.09238 -64.60641 37928 ft 443 kts 281°
2026-05-07 18:40 10.10364 -64.66806 37927 ft 442 kts 276°
2026-05-07 18:41 10.10881 -64.73029 37933 ft 442 kts 271°
2026-05-07 18:41 10.10814 -64.79283 37932 ft 441 kts 268°
2026-05-07 18:42 10.10579 -64.85528 37928 ft 442 kts 267°
2026-05-07 18:42 10.10337 -64.91727 37930 ft 442 kts 267°
2026-05-07 18:43 10.10091 -64.97980 37934 ft 442 kts 267°
2026-05-07 18:43 10.09841 -65.04246 37931 ft 444 kts 268°
2026-05-07 18:44 10.09592 -65.10523 37928 ft 444 kts 268°
2026-05-07 18:44 10.09343 -65.16752 37928 ft 444 kts 268°
2026-05-07 18:45 10.09091 -65.23031 37928 ft 444 kts 267°
2026-05-07 18:45 10.08837 -65.29314 37928 ft 444 kts 267°
2026-05-07 18:46 10.08582 -65.35596 37927 ft 445 kts 268°
2026-05-07 18:46 10.08326 -65.41886 37928 ft 446 kts 268°
2026-05-07 18:47 10.08050 -65.48181 37927 ft 446 kts 266°
2026-05-07 18:47 10.07575 -65.54430 37931 ft 446 kts 265°
2026-05-07 18:48 10.07077 -65.60712 37930 ft 446 kts 265°
2026-05-07 18:48 10.06594 -65.67008 37930 ft 448 kts 266°
2026-05-07 18:49 10.06114 -65.73336 37929 ft 448 kts 266°
2026-05-07 18:49 10.05657 -65.79616 37927 ft 448 kts 266°
2026-05-07 18:50 10.05228 -65.85931 37924 ft 448 kts 266°
2026-05-07 18:50 10.04797 -65.92252 37929 ft 448 kts 266°
2026-05-07 18:51 10.04361 -65.98599 37926 ft 450 kts 266°
2026-05-07 18:51 10.03928 -66.04907 37924 ft 450 kts 266°
2026-05-07 18:52 10.03490 -66.11248 37840 ft 447 kts 266°
2026-05-07 18:52 10.03272 -66.14399 37064 ft 447 kts 266°
2026-05-07 18:52 10.03120 -66.17598 35564 ft 454 kts 270°
2026-05-07 18:52 10.03226 -66.20831 34242 ft 459 kts 274°
2026-05-07 18:53 10.03595 -66.24058 32864 ft 461 kts 278°
2026-05-07 18:53 10.04228 -66.27248 31847 ft 457 kts 283°
2026-05-07 18:53 10.05103 -66.30328 31425 ft 454 kts 287°
2026-05-07 18:53 10.06216 -66.33347 30804 ft 456 kts 291°
2026-05-07 18:54 10.07549 -66.36256 30175 ft 458 kts 294°
2026-05-07 18:54 10.08973 -66.39168 29470 ft 459 kts 295°
2026-05-07 18:54 10.10413 -66.42072 28793 ft 459 kts 295°
2026-05-07 18:54 10.11852 -66.44964 28127 ft 458 kts 295°
2026-05-07 18:55 10.13290 -66.47854 27479 ft 457 kts 295°
2026-05-07 18:55 10.14718 -66.50725 27079 ft 451 kts 295°
2026-05-07 18:55 10.16128 -66.53560 26595 ft 448 kts 295°
2026-05-07 18:55 10.17530 -66.56383 26133 ft 444 kts 295°
2026-05-07 18:56 10.18916 -66.59178 25700 ft 441 kts 296°
2026-05-07 18:56 10.20291 -66.61949 25267 ft 437 kts 296°
2026-05-07 18:56 10.21654 -66.64695 24861 ft 433 kts 296°
2026-05-07 18:56 10.23007 -66.67419 24447 ft 431 kts 296°
2026-05-07 18:57 10.24338 -66.70101 24032 ft 429 kts 296°
2026-05-07 18:57 10.25678 -66.72803 23610 ft 427 kts 296°
2026-05-07 18:57 10.27014 -66.75496 23121 ft 425 kts 296°
2026-05-07 18:57 10.28342 -66.78175 22660 ft 422 kts 296°
2026-05-07 18:58 10.29662 -66.80845 22224 ft 428 kts 296°
2026-05-07 18:58 10.31007 -66.83606 21801 ft 439 kts 296°
2026-05-07 18:58 10.32366 -66.86393 21387 ft 438 kts 295°
2026-05-07 18:58 10.33706 -66.89112 20977 ft 433 kts 296°
2026-05-07 18:59 10.35053 -66.91852 20572 ft 432 kts 296°
2026-05-07 18:59 10.36394 -66.94581 20168 ft 429 kts 296°
2026-05-07 18:59 10.37728 -66.97284 19771 ft 427 kts 296°
2026-05-07 18:59 10.39053 -66.99986 19376 ft 426 kts 295°
2026-05-07 19:00 10.40378 -67.02674 18979 ft 423 kts 296°
2026-05-07 19:00 10.41696 -67.05356 18603 ft 423 kts 296°
2026-05-07 19:00 10.43006 -67.08028 18223 ft 421 kts 296°
2026-05-07 19:00 10.44291 -67.10657 17798 ft 419 kts 296°
2026-05-07 19:01 10.45574 -67.13329 17336 ft 419 kts 296°
2026-05-07 19:01 10.46838 -67.15997 16918 ft 419 kts 296°
2026-05-07 19:01 10.48089 -67.18679 16500 ft 419 kts 296°
2026-05-07 19:01 10.49326 -67.21369 16082 ft 420 kts 296°
2026-05-07 19:02 10.50554 -67.24076 15659 ft 419 kts 296°
2026-05-07 19:02 10.51772 -67.26764 15253 ft 416 kts 296°
2026-05-07 19:02 10.52983 -67.29434 14847 ft 414 kts 296°
2026-05-07 19:02 10.54191 -67.32095 14455 ft 413 kts 296°
2026-05-07 19:03 10.55377 -67.34714 14073 ft 412 kts 296°
2026-05-07 19:03 10.56571 -67.37359 13673 ft 411 kts 296°
2026-05-07 19:03 10.57758 -67.39996 13242 ft 409 kts 296°
2026-05-07 19:03 10.58944 -67.42616 12796 ft 406 kts 296°
2026-05-07 19:04 10.60135 -67.45223 12375 ft 404 kts 296°
2026-05-07 19:04 10.61325 -67.47799 11877 ft 399 kts 296°
2026-05-07 19:04 10.62494 -67.50351 11413 ft 394 kts 295°
2026-05-07 19:04 10.63611 -67.52815 11003 ft 373 kts 295°
2026-05-07 19:05 10.64541 -67.55213 10561 ft 354 kts 281°
2026-05-07 19:05 10.64649 -67.57635 10157 ft 335 kts 258°
2026-05-07 19:05 10.63891 -67.59792 9673 ft 318 kts 235°
2026-05-07 19:05 10.62443 -67.61370 9106 ft 304 kts 211°
2026-05-07 19:06 10.60539 -67.62159 8580 ft 290 kts 185°
2026-05-07 19:06 10.60389 -67.62180 8537 ft 289 kts 184°
2026-05-07 19:11 10.60277 -67.62193 8514 ft 288 kts 182°
2026-05-07 19:11 10.58349 -67.61931 8039 ft 276 kts 156°
2026-05-07 19:11 10.56804 -67.60826 7585 ft 272 kts 129°
2026-05-07 19:12 10.55801 -67.59194 7147 ft 273 kts 118°
2026-05-07 19:12 10.54984 -67.57452 6698 ft 272 kts 116°
2026-05-07 19:12 10.54211 -67.55699 6235 ft 271 kts 115°
2026-05-07 19:12 10.53452 -67.53949 5783 ft 269 kts 115°
2026-05-07 19:13 10.52686 -67.52202 5317 ft 270 kts 115°
2026-05-07 19:13 10.51965 -67.50437 4980 ft 271 kts 103°
2026-05-07 19:13 10.51955 -67.48533 4983 ft 274 kts 75°
2026-05-07 19:13 10.52805 -67.46813 4789 ft 273 kts 51°
2026-05-07 19:14 10.54011 -67.45331 4531 ft 270 kts 52°
2026-05-07 19:14 10.55132 -67.43816 4265 ft 266 kts 53°
2026-05-07 19:14 10.56217 -67.42310 4001 ft 262 kts 54°
2026-05-07 19:14 10.57284 -67.40820 3717 ft 259 kts 54°
2026-05-07 19:15 10.58238 -67.39319 3409 ft 253 kts 63°
2026-05-07 19:15 10.58900 -67.37707 3069 ft 239 kts 73°
2026-05-07 19:15 10.59205 -67.36111 3066 ft 219 kts 83°
2026-05-07 19:15 10.59319 -67.34591 3028 ft 214 kts 86°
2026-05-07 19:16 10.59381 -67.33087 3013 ft 213 kts 88°
2026-05-07 19:16 10.59430 -67.31583 3007 ft 211 kts 88°
2026-05-07 19:16 10.59474 -67.30130 2992 ft 201 kts 88°
2026-05-07 19:16 10.59516 -67.28711 2991 ft 200 kts 88°
2026-05-07 19:17 10.59558 -67.27295 3005 ft 200 kts 88°
2026-05-07 19:17 10.59601 -67.25878 3005 ft 200 kts 88°
2026-05-07 19:17 10.59643 -67.24484 3005 ft 199 kts 88°
2026-05-07 19:17 10.59686 -67.23071 3001 ft 200 kts 88°
2026-05-07 19:18 10.59730 -67.21654 3079 ft 200 kts 88°
2026-05-07 19:18 10.59774 -67.20239 3036 ft 201 kts 88°
2026-05-07 19:18 10.59819 -67.18815 3010 ft 201 kts 88°
2026-05-07 19:18 10.59863 -67.17390 3005 ft 201 kts 88°
2026-05-07 19:19 10.59908 -67.15960 2980 ft 202 kts 88°
2026-05-07 19:19 10.59953 -67.14535 2731 ft 200 kts 88°
2026-05-07 19:19 10.59997 -67.13150 2452 ft 190 kts 88°
2026-05-07 19:19 10.60039 -67.11850 2181 ft 178 kts 88°
2026-05-07 19:20 10.60078 -67.10601 1970 ft 176 kts 88°
2026-05-07 19:20 10.60116 -67.09391 1734 ft 165 kts 88°
2026-05-07 19:20 10.60153 -67.08276 1516 ft 155 kts 86°
2026-05-07 19:20 10.60192 -67.07188 1329 ft 153 kts 87°
2026-05-07 19:21 10.60224 -67.06104 1141 ft 153 kts 88°
2026-05-07 19:21 10.60255 -67.05020 954 ft 153 kts 89°
2026-05-07 19:21 10.60289 -67.03939 763 ft 152 kts 89°
2026-05-07 19:21 10.60320 -67.02868 556 ft 151 kts 88°
2026-05-07 19:22 10.60355 -67.01807 393 ft 149 kts 86°
2026-05-07 19:22 10.60395 -67.00757 244 ft 148 kts 88°
2026-05-07 19:22 10.60425 -66.99861 231 ft 91 kts 88°
2026-05-07 19:22 10.60438 -66.99444 219 ft 54 kts 88°
2026-05-07 19:23 10.60442 -66.99151 203 ft 16 kts 102°
2026-05-07 19:23 10.60330 -66.99112 196 ft 22 kts 180°
2026-05-07 19:23 10.60224 -66.99111 194 ft 24 kts 174°
2026-05-07 19:23 10.60084 -66.99086 195 ft 18 kts 164°
2026-05-07 19:24 10.59971 -66.99055 197 ft 9 kts 165°
2026-05-07 19:24 10.59914 -66.99052 212 ft 5 kts 213°
2026-05-07 19:24 10.59895 -66.99093 214 ft 8 kts 253°
2026-05-07 19:24 10.59875 -66.99161 210 ft 12 kts 254°
2026-05-07 19:25 10.59849 -66.99260 219 ft 16 kts 257°
2026-05-07 19:25 10.59820 -66.99386 224 ft 20 kts 256°
2026-05-07 19:25 10.59797 -66.99537 222 ft 23 kts 275°
2026-05-07 19:25 10.59814 -66.99693 228 ft 21 kts 286°
2026-05-07 19:26 10.59908 -66.99691 230 ft 20 kts 51°
2026-05-07 19:26 10.60049 -66.99664 224 ft 26 kts 357°
2026-05-07 19:26 10.60142 -66.99748 224 ft 21 kts 265°
2026-05-07 19:26 10.60133 -66.99870 228 ft 15 kts 262°
2026-05-07 19:27 10.60119 -66.99995 228 ft 20 kts 266°
2026-05-07 19:27 10.60112 -67.00155 235 ft 25 kts 271°
2026-05-07 19:27 10.60109 -67.00269 233 ft 12 kts 249°
2026-05-07 19:27 10.60041 -67.00297 233 ft 10 kts 186°
2026-05-07 19:28 10.60003 -67.00355 234 ft 10 kts 268°
2026-05-07 19:28 10.60003 -67.00367 234 ft 3 kts 267°
2026-05-07 19:28 10.60002 -67.00387 235 ft 1 kts 264°
2026-05-07 19:28 10.59999 -67.00391 235 ft 0 kts 226°
2026-05-07 19:29 10.59995 -67.00392 235 ft 1 kts 182°
2026-05-07 19:29 10.59952 -67.00396 238 ft 6 kts 187°
2026-05-07 19:29 10.59932 -67.00399 240 ft 4 kts 187°
2026-05-07 19:29 10.59881 -67.00400 237 ft 7 kts 177°
2026-05-07 19:30 10.59840 -67.00398 235 ft 2 kts 178°
2026-05-07 19:30 10.59834 -67.00398 235 ft 1 kts 178°
2026-05-07 19:30 10.59831 -67.00398 235 ft 0 kts 178°